Hannover, Germany

2:38 PM CET on December 17, 2017 (GMT +0100)
Hannover

Weather History for EDDV - December, 2017

Change the Weather History Date:

Thursday, December 7, 2017

  Actual Average Record
Temperature  
Mean Temperature 44 °F -  
Max Temperature 46 °F 39 °F 55 °F (2007)
Min Temperature 41 °F 30 °F 17 °F (1998)
Degree Days  
Heating Degree Days 22    
Moisture  
Dew Point 35 °F    
Average Humidity 73    
Maximum Humidity 93    
Minimum Humidity 61    
Precipitation  
Precipitation 0.00 in 0.08 in - ()
Sea Level Pressure  
Sea Level Pressure 29.90 in    
Wind  
Wind Speed 13 mph ()    
Max Wind Speed 21 mph    
Max Gust Speed 31 mph    
Visibility 6.2 miles    
Events Rain    
Averages and records for this station are not official NWS values.
T = Trace of Precipitation, MM = Missing Value Source: Averaged Metar Reports

Daily Weather History Graph

Daily Weather History Graph

Search for Another Location

Airport or City:

Trip Planner

Search our weather history database for the weather conditions in past years. The results will help you decide how hot, cold, wet, or windy it might be!

Date:

Astronomy

Dec. 07, 2017 Rise Set
Actual Time 8:17 AM CET 4:08 PM CET
Civil Twilight 7:36 AM CET 4:48 PM CET
Nautical Twilight 6:52 AM CET 5:32 PM CET
Astronomical Twilight 6:11 AM CET 6:14 PM CET
Moon 8:49 PM CET (12/7) 11:32 AM CET (12/7)
Length of Visible Light 9h 12m
Length of Day
7h 50m
Waning Gibbous, 80% of the Moon is Illuminated
Dec 7
Waning Gibbous
Dec 10
Last Quarter
Dec 18
New
Dec 26
First Quarter
Jan 2
Full

Hourly Weather History & Observations

Time (CET) Temp. Windchill Dew Point Humidity Pressure Visibility Wind Dir Wind Speed Gust Speed Precip Events Conditions
12:20 AM 46.4 °F 40.7 °F 37.4 °F 71% 30.18 in 6.2 mi WSW 12.7 mph - N/A   Mostly Cloudy
12:50 AM 46.4 °F 40.7 °F 37.4 °F 71% 30.18 in 6.2 mi WSW 12.7 mph - N/A   Mostly Cloudy
1:20 AM 46.4 °F 39.8 °F 35.6 °F 66% 30.18 in 6.2 mi WSW 16.1 mph - N/A   Mostly Cloudy
1:50 AM 44.6 °F 38.4 °F 35.6 °F 71% 30.15 in 6.2 mi WSW 12.7 mph - N/A   Mostly Cloudy
2:20 AM 44.6 °F 38.4 °F 33.8 °F 66% 30.15 in 6.2 mi WSW 12.7 mph 24.2 mph N/A   Mostly Cloudy
2:50 AM 44.6 °F 37.8 °F 33.8 °F 66% 30.15 in 6.2 mi WSW 15.0 mph - N/A   Mostly Cloudy
3:20 AM 44.6 °F 38.1 °F 33.8 °F 66% 30.12 in 6.2 mi WSW 13.8 mph - N/A   Mostly Cloudy
3:50 AM 44.6 °F 39.2 °F 33.8 °F 66% 30.12 in 6.2 mi WSW 10.4 mph - N/A   Mostly Cloudy
4:20 AM 44.6 °F 37.4 °F 32.0 °F 61% 30.09 in 6.2 mi WSW 16.1 mph - N/A   Mostly Cloudy
4:50 AM 42.8 °F 37.0 °F 33.8 °F 70% 30.09 in 6.2 mi WSW 10.4 mph - N/A   Mostly Cloudy
5:20 AM 42.8 °F 35.8 °F 32.0 °F 66% 30.09 in 6.2 mi SW 13.8 mph - N/A   Mostly Cloudy
5:50 AM 42.8 °F 34.5 °F 32.0 °F 66% 30.06 in 6.2 mi WSW 18.4 mph - N/A   Mostly Cloudy
6:20 AM 42.8 °F 35.4 °F 32.0 °F 66% 30.06 in 6.2 mi SW 15.0 mph - N/A   Mostly Cloudy
6:50 AM 42.8 °F 36.2 °F 32.0 °F 66% 30.06 in 6.2 mi SW 12.7 mph - N/A   Mostly Cloudy
7:20 AM 41.0 °F 33.1 °F 30.2 °F 65% 30.04 in 6.2 mi SW 15.0 mph 26.5 mph N/A   Mostly Cloudy
7:50 AM 41.0 °F 33.1 °F 30.2 °F 65% 30.04 in 6.2 mi SW 15.0 mph - N/A   Mostly Cloudy
8:20 AM 41.0 °F 33.5 °F 30.2 °F 65% 30.04 in 6.2 mi SW 13.8 mph - N/A   Mostly Cloudy
8:50 AM 41.0 °F 33.9 °F 30.2 °F 65% 30.01 in 6.2 mi SW 12.7 mph - N/A   Mostly Cloudy
9:20 AM 41.0 °F 34.3 °F 32.0 °F 70% 30.01 in 6.2 mi WSW 11.5 mph - N/A   Mostly Cloudy
9:50 AM 41.0 °F 33.5 °F 30.2 °F 65% 30.01 in 6.2 mi WSW 13.8 mph - N/A   Mostly Cloudy
10:20 AM 41.0 °F 33.9 °F 30.2 °F 65% 29.98 in 6.2 mi SW 12.7 mph - N/A   Mostly Cloudy
10:50 AM 41.0 °F 32.2 °F 30.2 °F 65% 29.98 in 6.2 mi SW 18.4 mph 31.1 mph N/A   Scattered Clouds
11:20 AM 41.0 °F 33.1 °F 30.2 °F 65% 29.95 in 6.2 mi SW 15.0 mph 26.5 mph N/A   Scattered Clouds
11:50 AM 41.0 °F 32.8 °F 32.0 °F 70% 29.92 in 6.2 mi SW 16.1 mph 27.6 mph N/A   Mostly Cloudy
12:20 PM 41.0 °F 31.9 °F 32.0 °F 70% 29.92 in 6.2 mi SSW 19.6 mph - N/A   Mostly Cloudy
12:50 PM 41.0 °F 32.5 °F 32.0 °F 70% 29.89 in 6.2 mi SSW 17.3 mph - N/A   Mostly Cloudy
1:20 PM 42.8 °F 34.5 °F 32.0 °F 66% 29.86 in 6.2 mi SSW 18.4 mph - N/A   Mostly Cloudy
1:50 PM 42.8 °F 35.8 °F 33.8 °F 70% 29.86 in 6.2 mi SSW 13.8 mph - N/A   Mostly Cloudy
2:20 PM 42.8 °F 34.0 °F 33.8 °F 70% 29.83 in 6.2 mi SSW 20.7 mph - N/A   Mostly Cloudy
2:50 PM 42.8 °F 34.8 °F 33.8 °F 70% 29.80 in 6.2 mi SSW 17.3 mph - N/A   Mostly Cloudy
3:20 PM 41.0 °F 32.5 °F 33.8 °F 76% 29.80 in 6.2 mi South 17.3 mph - N/A   Mostly Cloudy
3:50 PM 42.8 °F 35.1 °F 33.8 °F 70% 29.77 in 6.2 mi South 16.1 mph - N/A   Overcast
4:20 PM 42.8 °F 35.4 °F 33.8 °F 70% 29.77 in 6.2 mi SSW 15.0 mph - N/A   Overcast
4:50 PM 42.8 °F 34.5 °F 35.6 °F 76% 29.74 in 6.2 mi SSW 18.4 mph - N/A   Overcast
5:20 PM 42.8 °F 35.1 °F 35.6 °F 76% 29.74 in 6.2 mi SSW 16.1 mph - N/A   Overcast
5:50 PM 41.0 °F 32.5 °F 35.6 °F 81% 29.71 in 6.2 mi SSW 17.3 mph - N/A Rain Light Rain
6:20 PM 41.0 °F 31.9 °F 35.6 °F 81% 29.68 in 6.2 mi SSW 19.6 mph - N/A Rain Light Rain
6:50 PM 41.0 °F 32.5 °F 37.4 °F 87% 29.68 in 6.2 mi SSW 17.3 mph 28.8 mph N/A Rain Light Rain
7:20 PM 41.0 °F 32.8 °F 37.4 °F 87% 29.68 in 6.2 mi SSW 16.1 mph - N/A Rain Light Rain
7:50 PM 41.0 °F 32.8 °F 39.2 °F 93% 29.65 in 6.2 mi SSW 16.1 mph - N/A Rain Light Rain
8:20 PM 42.8 °F 34.8 °F 39.2 °F 87% 29.65 in 6.2 mi SSW 17.3 mph - N/A Rain Light Rain
8:50 PM 42.8 °F 36.2 °F 39.2 °F 87% 29.65 in 6.2 mi SW 12.7 mph - N/A Rain Light Rain
9:20 PM 42.8 °F 36.2 °F 41.0 °F 93% 29.65 in 5.6 mi SW 12.7 mph - N/A Rain Light Rain
9:50 PM 44.6 °F 38.8 °F 41.0 °F 87% 29.62 in 6.2 mi SW 11.5 mph - N/A Rain Light Rain
10:20 PM 44.6 °F 38.4 °F 41.0 °F 87% 29.62 in 6.2 mi SW 12.7 mph - N/A Rain Light Rain
10:50 PM 44.6 °F 38.4 °F 41.0 °F 87% 29.59 in 6.2 mi SW 12.7 mph - N/A Rain Light Rain
11:20 PM 44.6 °F 37.2 °F 41.0 °F 87% 29.59 in 6.2 mi WSW 17.3 mph - N/A Rain Light Rain
11:50 PM 44.6 °F 37.4 °F 41.0 °F 87% 29.62 in 5.6 mi WSW 16.1 mph - N/A Rain Light Rain